Location: Casale Granaraccio
(41.9167°N, 12.7333°E)
Time: 15:41:40
(UTC+00:00)

Daily predictions for brighter satellites

Satellite Brightness Start Highest point End
(mag) Time Altitude Azimuth Time Altitude Azimuth Time Altitude Azimuth
Okean 1 Rocket 3.7 19:15:42 10° NNW 19:20:01 58° W 19:24:20 10° S
MOS 1 4.4 19:17:58 10° SSE 19:23:41 88° ENE 19:29:26 10° NNW
Cosmos 1707 3.8 19:23:13 10° SSW 19:27:00 50° W 19:30:49 10° N
Cosmos 2333 4.3 19:23:45 10° S 19:29:23 60° ESE 19:35:01 10° NNE
Cosmos 1025 Rocket 3.7 19:26:05 10° SSE 19:30:06 37° E 19:34:07 10° NNE
Cosmos 2219 Rocket 2.6 19:27:20 10° S 19:32:40 44° ESE 19:38:00 10° NE
Cosmos 1726 3.9 19:30:02 10° NNW 19:33:19 32° W 19:36:35 10° SSW
SJ-6B 4.3 19:30:13 10° SSW 19:33:59 37° W 19:37:44 10° NNW
ATLAS 3B R/B 2.6 19:28:16 10° SSW 19:34:43 70° ESE 19:41:24 10° NE
ARIANE 5 R/B 4.2 19:33:15 10° ESE 19:36:36 21° ENE 19:39:59 10° NNE
Terra 3.9 19:34:57 10° E 19:37:00 13° ENE 19:39:03 10° NE
Cosmos 1900 4.3 19:33:29 10° NNW 19:38:23 77° ENE 19:43:07 11° SE
Cosmos 2100 Rocket 4.1 19:32:12 10° N 19:38:31 63° E 19:44:42 10° SSE
BREEZE-M DEB (TANK) 3.5 19:36:03 10° NW 19:39:56 35° NNE 19:41:58 10° E
Cosmos 1110 Rocket 4.2 19:36:08 10° SSW 19:41:18 78° WNW 19:46:33 10° NNE
SPOT 3 Rocket 3.7 19:37:03 10° SSE 19:42:10 65° ENE 19:47:19 10° N
Resurs 1-3 4.2 19:39:09 10° S 19:43:28 58° W 19:47:49 10° NNW
Cosmos 2333 Rocket 2.2 19:40:39 10° SSW 19:46:20 68° ESE 19:52:01 10° NNE
Cosmos 2173 Rocket 4.1 19:40:08 10° N 19:46:31 68° E 19:52:49 10° SSE
Cosmos 1844 3.7 19:44:43 10° NNW 19:50:20 89° WSW 19:55:45 11° SSE
Cosmos 1674 3.0 19:47:00 10° SSW 19:50:39 65° W 19:54:20 10° N
Cosmos 2016 Rocket 4.4 19:45:19 10° N 19:51:13 48° ENE 19:56:35 13° SSE
ASTRO E2 4.5 19:53:01 10° SW 19:55:32 16° S 19:57:09 13° SSE
DNEPR-1 R/B 3.7 19:53:08 10° NNW 19:57:22 67° NE 20:00:57 16° SE
Cosmos 2237 Rocket 3.5 19:55:35 14° SE 19:58:36 20° E 20:02:37 10° NE
SPOT 5 4.1 19:55:01 13° ESE 19:58:37 28° ENE 20:02:42 10° N
Cosmos 2360 Rocket 3.4 19:53:37 10° SW 19:59:00 45° WNW 20:04:26 10° NNE
SL-4 R/B 1.9 19:54:50 10° SW 19:59:10 72° SE 20:03:12 10° ENE
Meteor 2-11 Rocket 4.4 19:54:34 10° N 20:00:41 77° E 20:06:37 11° SSE
OBJECT-B 3.9 20:02:23 10° WSW 20:03:07 11° W 20:03:52 10° WNW
Landsat 7 3.9 19:59:12 10° S 20:03:57 78° WSW 20:08:44 10° NNW
Meteor 2-5 Rocket 4.0 20:00:34 11° SSE 20:05:42 47° E 20:11:04 10° NNE
Cosmos 1975 Rocket 4.3 20:03:04 10° SSW 20:07:13 43° WNW 20:11:26 10° N
ERS-1 Rocket 3.9 20:03:45 15° SE 20:07:17 35° ENE 20:11:50 10° N
Cosmos 1725 Rocket 4.2 20:01:51 10° N 20:07:56 56° E 20:12:52 16° SSE
SL-8 R/B 4.5 20:04:27 10° WNW 20:08:56 40° SW 20:12:10 17° SSE
Cosmos 405 3.1 20:06:18 10° N 20:09:41 53° ENE 20:11:43 21° SSE
USA 245 4.3 20:06:29 15° SSE 20:10:58 74° ENE 20:17:02 10° N
Lacrosse 5 rocket 4.1 20:08:53 10° WNW 20:11:29 18° NNW 20:14:04 10° NNE
Cosmos 1340 2.6 20:07:50 10° S 20:11:36 84° E 20:15:22 10° N
Cosmos 1300 3.0 20:12:28 10° N 20:16:11 49° E 20:18:17 23° SE
SL-14 R/B 3.3 20:14:01 10° S 20:18:03 87° E 20:22:04 10° N
Spot 2 Rocket 3.5 20:16:33 18° SSE 20:20:17 68° ENE 20:25:21 10° N
ATLAS CENTAUR R/B 2.1 20:17:27 10° NW 20:21:45 52° WSW 20:24:56 18° S
Cosmos 1459 Rocket 4.3 20:17:12 10° NNW 20:23:12 65° W 20:29:12 10° S
NOSS 0 Rocket 4.2 20:18:00 10° S 20:23:53 48° ESE 20:29:51 10° NE
Cosmos 1626 3.2 20:21:17 10° SSW 20:24:48 43° WNW 20:28:21 10° N
Meteor 1-24 Rocket 3.8 20:21:21 16° SSE 20:25:30 55° E 20:30:54 10° NNE
Cosmos 1844 Rocket 3.9 20:22:31 10° NW 20:27:38 36° WSW 20:32:44 10° S
Meteor 2-10 Rocket 4.1 20:23:15 10° N 20:27:57 38° ENE 20:30:32 22° SE
GENESIS II 4.0 20:26:30 10° SSW 20:30:22 79° ESE 20:34:16 10° NE
Cosmos 1802 Rocket 4.3 20:28:21 10° NNW 20:34:36 67° W 20:40:25 12° S
Cosmos 2278 Rocket 2.8 20:29:19 10° NNW 20:34:45 44° ENE 20:38:06 22° ESE
X-37B 0.5 20:31:58 10° WSW 20:35:07 65° SSE 20:37:46 14° ENE
Resurs 01 Rocket 3.4 20:33:15 10° SSW 20:36:59 27° W 20:40:45 10° NW
Cosmos 1953 4.4 20:34:23 10° NW 20:37:41 24° W 20:40:58 10° SW
COSMOS 2428 3.1 20:33:29 10° SSW 20:39:11 68° WNW 20:44:56 10° NNE
Cosmos 1943 Rocket 4.4 20:43:23 10° NNE 20:45:46 13° NE 20:48:09 10° ENE
SL-12 R/B (Aux Motor) 4.1 20:44:58 10° WSW 20:47:08 80° SSE 20:52:02 10° ENE
BREEZE-M DEB (TANK) 4.5 20:47:52 10° WNW 20:50:29 35° N 20:56:14 10° ENE
ATLAS CENTAUR R/B 3.1 20:49:29 30° SE 20:50:36 33° ESE 20:58:04 10° NE
SPOT 1/Viking Rocket 4.5 20:47:37 14° SSW 20:51:40 42° W 20:56:33 10° NNW
Cosmos 1606 Rocket 4.0 20:50:08 10° N 20:54:27 48° ENE 20:55:55 34° SE
BREEZE-M DEB (TANK) 3.4 20:55:28 10° W 20:57:55 37° N 21:02:39 10° ENE
Cosmos 1892 Rocket 4.2 20:58:15 33° ESE 20:59:14 38° E 21:03:22 10° NNE
SL-24 R/B 4.3 20:57:28 10° N 21:02:18 81° E 21:04:47 30° S
Cosmos 1980 3.6 21:05:21 16° SSW 21:09:55 86° ESE 21:15:38 10° NNE
Cosmos 2233 Rocket 4.1 21:04:14 10° N 21:10:24 75° W 21:14:01 26° S
Cosmos 1441 Rocket 4.4 21:10:53 27° E 21:10:53 27° E 21:13:53 10° NE
Cosmos 968 Rocket 4.1 21:06:21 10° NNW 21:11:17 49° WSW 21:13:47 27° SSW
ARIANE 5 R/B 3.7 21:10:25 22° SSW 21:12:47 38° W 21:17:00 10° NNW
Cosmos 2228 3.0 21:08:43 10° N 21:13:08 85° W 21:14:34 42° S
Terra 1.8 21:12:09 36° S 21:14:05 78° WSW 21:18:52 10° NNW
CZ-4B DEB 4.1 21:14:43 78° SSW 21:14:52 82° WSW 21:18:03 10° NNW
Cosmos 2219 Rocket 4.1 21:11:52 10° WSW 21:16:45 29° NW 21:21:40 10° N
Cosmos 389 Rocket 2.5 21:14:36 10° NNW 21:18:01 67° W 21:18:28 58° SW
Cosmos 1607 3.9 21:11:46 10° NNW 21:18:13 82° ENE 21:21:07 34° SE
H-2A R/B 3.3 21:14:37 10° NNE 21:18:43 86° WNW 21:20:02 42° SSW
Iridium 2 3.6 21:19:12 59° ESE 21:19:31 62° E 21:23:13 10° N
Cosmos 1346 Rocket 3.7 21:22:34 25° SW 21:24:34 45° WNW 21:28:27 10° N
Cosmos 192 4.3 21:28:06 35° SSW 21:30:12 89° WNW 21:35:09 10° NNE
NOSS 3-1 (C) 3.4 21:32:57 41° SE 21:33:33 43° ESE 21:39:06 10° NE
Cosmos 1184 Rocket 2.9 21:36:38 69° N 21:36:38 69° N 21:39:33 10° N
SPOT 5 4.1 21:34:14 22° SW 21:36:34 33° W 21:40:56 10° NNW
Cosmos 1703 3.4 21:37:38 54° E 21:37:38 54° E 21:41:29 10° NNE
SL-4 R/B 4.0 21:35:22 10° W 21:39:02 29° NNW 21:42:28 10° NE
Cosmos 1455 2.0 21:35:27 10° N 21:39:16 84° W 21:39:27 79° SSW
Cosmos 2237 Rocket 2.7 21:37:19 13° SW 21:42:10 56° WNW 21:47:43 10° NNE
SL-16 R/B 2.4 21:41:05 44° SE 21:42:13 51° ESE 21:47:43 10° NNE
NOSS 2-3 (E) 4.5 21:46:15 32° E 21:46:15 32° E 21:49:22 10° NE
ERS-1 Rocket 4.5 21:43:45 20° SW 21:46:05 28° W 21:50:23 10° NW
NOSS 3-1 (A) 4.1 21:47:21 29° ESE 21:47:21 29° ESE 21:52:00 10° NE
Cosmos 1354 Rocket 4.2 21:44:25 10° NNW 21:49:43 64° WSW 21:51:08 46° SSW
Cosmos 2369 Rocket 4.1 21:47:33 10° N 21:51:52 21° NE 21:55:19 13° E
USA 215 3.4 21:48:24 10° ENE 21:54:45 51° SE 21:56:37 40° S
Meteor 2-1 Rocket 4.1 21:55:19 10° NNW 22:00:53 83° W 22:02:24 51° S
Meteor 1-4 Rocket 3.3 21:59:42 10° N 22:02:27 43° NE 22:02:27 43° NE
Cosmos 1464 Rocket 4.0 21:58:18 10° N 22:04:42 78° W 22:06:55 43° S
Cosmos 1328 3.8 22:09:22 72° NE 22:09:22 72° NE 22:12:57 10° N
X-37B 2.7 22:08:45 10° W 22:10:08 22° WNW 22:10:08 22° WNW
Cosmos 1812 Rocket 4.1 22:09:12 10° N 22:13:24 44° ENE 22:13:33 44° E
Cosmos 724 4.3 22:07:28 10° NNW 22:13:40 89° ENE 22:15:20 51° SSE
Cosmos 2278 Rocket 3.5 22:13:54 10° NW 22:18:33 27° WSW 22:19:57 24° SW
Cosmos 1816 Rocket 4.4 22:18:18 49° S 22:20:05 89° E 22:26:14 10° N
Okean 1-7 Rocket 4.2 22:20:45 42° WSW 22:21:32 47° WNW 22:25:49 10° N
Spot 4 3.7 22:22:20 69° SSW 22:22:50 79° WSW 22:27:37 10° NNW
SJ 16-02 1.4 22:19:23 10° NNW 22:23:44 65° ENE 22:23:51 65° E
Cosmos 2058 Rocket 4.0 22:19:50 10° NNW 22:23:53 37° W 22:24:20 36° WSW
Cosmos 2297 3.6 22:19:21 10° NNW 22:25:01 83° ENE 22:26:13 57° SE
NOSS 2-3 (D) 3.4 22:26:26 82° ENE 22:26:26 82° ENE 22:30:52 10° NE
Cosmos 1943 Rocket 2.2 22:25:01 10° NNW 22:30:32 73° ENE 22:31:41 55° SE
Cosmos 1763 Rocket 4.0 22:35:44 42° E 22:35:44 42° E 22:40:29 10° NNE
Cosmos 1825 Rocket 4.3 22:38:01 42° E 22:38:01 42° E 22:41:59 10° NNE
Cosmos 1892 3.9 22:42:46 35° ENE 22:42:46 35° ENE 22:45:37 10° NNE
Cosmos 2034 Rocket 4.3 22:36:47 10° NNW 22:42:46 55° W 22:44:25 43° SW
NOSS 2-3 (C) 3.8 22:42:31 57° W 22:42:59 62° NW 22:47:38 10° NNE
Exosat Rocket 4.3 22:46:51 45° SE 22:47:39 48° ESE 22:52:47 10° NE
Cosmos 1943 3.6 22:51:58 45° ESE 22:52:16 46° ESE 22:57:39 10° NE
GP-B 3.0 22:49:03 10° N 22:53:25 78° ENE 22:53:25 78° ENE
USA 32 4.0 22:49:40 10° N 22:54:53 69° W 22:55:33 61° SW
Meteor 1-11 4.4 22:55:27 50° SW 22:56:41 64° WNW 23:02:14 10° N
Cosmos 1825 3.9 22:58:41 25° ENE 22:58:41 25° ENE 23:01:06 10° NNE
ALOS 2 3.0 23:00:30 53° W 23:00:30 53° W 23:04:37 10° NNW
Meteor 1-27 4.1 22:57:41 10° N 23:03:17 86° E 23:04:11 64° SSE
Cosmos 540 Rocket 4.1 23:04:04 41° ESE 23:04:05 41° ESE 23:08:52 10° NE
USA 307 4.0 23:06:04 35° ENE 23:06:04 35° ENE 23:08:43 10° ENE
Cosmos 1603 3.7 23:04:36 58° SE 23:05:11 62° ESE 23:10:46 10° NNE
Cosmos 1953 Rocket 3.9 23:05:33 54° E 23:05:33 54° E 23:09:37 10° NNE
GEOS 3 Rocket 3.6 23:04:53 64° SSE 23:05:43 82° SW 23:11:06 10° NW
Cosmos 1437 Rocket 4.3 23:05:03 10° NNE 23:08:13 26° ENE 23:08:13 26° ENE
Cosmos 2142 Rocket 4.4 23:03:42 10° N 23:09:52 76° E 23:11:22 53° SSE
Cosmos-2242 3.1 23:06:31 10° NNW 23:10:41 72° WNW 23:10:41 72° WNW
Thor Agena Rocket 3.4 23:09:03 10° NNE 23:14:17 85° ESE 23:14:52 71° S
Cosmos 1869 3.6 23:12:28 10° N 23:16:05 68° N 23:16:05 68° N
USA 229 DEB 4.0 23:14:17 29° WSW 23:17:33 60° NW 23:24:18 10° NNE
USA 229 4.0 23:14:25 30° WSW 23:17:39 60° NW 23:24:24 10° NNE
Aureole 3 4.1 23:14:00 10° NNW 23:18:17 53° W 23:18:31 53° WSW
Cosmos 1758 Rocket 4.3 23:19:59 43° W 23:20:06 43° WNW 23:24:18 10° N
USA 308 3.4 23:21:40 52° ENE 23:21:40 52° ENE 23:24:58 10° NE
Cosmos 990 Rocket 3.8 23:18:08 10° NNW 23:23:20 80° WSW 23:23:44 74° SSW
SL-16 R/B 4.0 23:22:55 14° WSW 23:26:38 25° NW 23:31:18 10° N
Cosmos 841 Rocket 3.6 23:27:12 57° ESE 23:27:29 58° ESE 23:32:32 10° NNE
Cosmos 405 Rocket 3.3 23:30:09 53° N 23:30:09 53° N 23:33:03 10° N
ATLAS 5 CENTAUR R/B 2.4 23:32:09 35° E 23:32:09 35° E 23:35:08 10° NE
USA 305 3.0 23:36:25 74° N 23:36:25 74° N 23:40:30 10° NE
Cosmos 2369 Rocket 2.2 23:30:44 10° NNW 23:36:24 65° WSW 23:37:04 60° SSW
NOSS 3-1 (A) 4.2 23:34:44 25° WSW 23:37:31 44° NW 23:43:30 10° NNE
USA 215 3.9 23:31:27 10° NE 23:37:45 52° NNW 23:43:55 11° WSW
Cosmos 2180 Rocket 4.4 23:32:51 10° N 23:39:15 90° SE 23:40:55 53° S
SL-16 R/B 4.3 23:35:17 10° ESE 23:40:07 25° ENE 23:44:56 10° N
Cosmos 2221 3.0 23:36:28 10° N 23:40:38 50° E 23:40:49 49° E
Resurs 1-4 Rocket 3.8 23:39:13 10° NE 23:43:13 21° E 23:44:38 19° ESE
Cosmos 1937 Rocket 3.4 23:38:22 10° NNW 23:43:43 88° ENE 23:44:33 64° SSE
Cosmos 1898 Rocket 3.5 23:44:31 10° NNW 23:49:39 59° WSW 23:49:55 58° WSW
Cosmos 2279 Rocket 4.2 23:44:39 10° NNW 23:50:44 57° W 23:52:06 47° SW
CZ-4C R/B 4.1 23:50:46 12° ESE 23:51:11 12° ESE 23:52:59 10° E
Lacrosse 4 Rocket 2.3 23:52:05 10° NNW 23:55:59 42° ENE 23:56:50 37° E
